This is the latest recevied weather packets stored in our database for station/object K4PAD. If no packets are shown the sender has not sent any weather packets the latest 10 day(s).
| Time | Temp. | Humidity | Pressure | Rain* | Wind** | Luminosity | Snow |
|---|---|---|---|---|---|---|---|
| 1777483705 | 30.56° C | 51% | 1015.6 hPa | 0 mm | - | 518 W/m² | - |
| 1777483401 | 30.56° C | 51% | 1015.7 hPa | 0 mm | - | 533 W/m² | - |
| 1777483096 | 30.56° C | 50% | 1015.8 hPa | 0 mm | - | 771 W/m² | - |
| 1777482794 | 31.67° C | 49% | 1015.8 hPa | 0 mm | - | 453 W/m² | - |
| 1777482489 | 30.56° C | 50% | 1015.9 hPa | 0 mm | - | 833 W/m² | - |
| 1777482187 | 31.11° C | 50% | 1016.1 hPa | 0 mm | - | 883 W/m² | - |
| 1777481884 | 31.11° C | 47% | 1016.1 hPa | 0 mm | - | 1061 W/m² | - |
| 1777481581 | 30.56° C | 51% | 1016.1 hPa | 0 mm | - | 1098 W/m² | - |
| 1777481278 | 30.56° C | 51% | 1016.2 hPa | 0 mm | - | 1068 W/m² | - |
| 1777480975 | 30.56° C | 51% | 1016.4 hPa | 0 mm | - | 338 W/m² | - |
| 1777480671 | 30.56° C | 50% | 1016.4 hPa | 0 mm | - | 1029 W/m² | - |
| 1777480368 | 30.56° C | 51% | 1016.1 hPa | 0 mm | - | 987 W/m² | - |
| 1777480064 | 30° C | 52% | 1016.6 hPa | 0 mm | - | 1020 W/m² | - |
| 1777479760 | 30° C | 53% | 1016.5 hPa | 0 mm | - | 955 W/m² | - |
| 1777479459 | 30° C | 50% | 1016.5 hPa | 0 mm | - | 868 W/m² | - |
| 1777479155 | 30° C | 51% | 1016.4 hPa | 0 mm | - | 814 W/m² | - |
| 1777478852 | 30° C | 55% | 1016.6 hPa | 0 mm | - | 902 W/m² | - |
| 1777478548 | 30° C | 54% | 1016.8 hPa | 0 mm | - | 1043 W/m² | - |
| 1777478246 | 30° C | 55% | 1016.7 hPa | 0 mm | - | 969 W/m² | - |
| 1777477942 | 30° C | 56% | 1016.7 hPa | 0 mm | - | 975 W/m² | - |
| 1777477637 | 29.44° C | 55% | 1016.7 hPa | 0 mm | - | 964 W/m² | - |
| 1777477334 | 29.44° C | 58% | 1016.7 hPa | 0 mm | - | 934 W/m² | - |
| 1777477030 | 28.89° C | 60% | 1016.9 hPa | 0 mm | - | 901 W/m² | - |
| 1777476728 | 28.89° C | 57% | 1017.2 hPa | 0 mm | - | 820 W/m² | - |
| 1777476424 | 28.33° C | 62% | 1017.2 hPa | 0 mm | - | 846 W/m² | - |
* Rain latest hour (hover to see other rain measurements)
** Current wind speed in m/s (hover to see current wind gust speed)